Needles, CA

11:24 PM PDT on August 26, 2016 (GMT -0700)
Needles

Weather History for KEED - August, 2012

Change the Weather History Date:

Monday, August 13, 2012

  Actual Average Record
Temperature  
Mean Temperature 103 °F 95 °F  
Max Temperature 118 °F 107 °F 118 °F (1960)
Min Temperature 90 °F 83 °F 65 °F (1932)
Degree Days  
Heating Degree Days 0    
Cooling Degree Days 38    
Growing Degree Days 53 (Base 50)    
Moisture  
Dew Point 53 °F    
Average Humidity 20    
Maximum Humidity 34    
Minimum Humidity 10    
Precipitation  
Precipitation 0.00 in 0.01 in 1.53 in (1982)
Month to date precipitation 0.15  
Year to date precipitation 2.69  
Sea Level Pressure  
Sea Level Pressure 29.64 in    
Wind  
Wind Speed 6 mph (West)    
Max Wind Speed 24 mph    
Max Gust Speed 36 mph    
Visibility 10 miles    
Events Rain , Thunderstorm    
T = Trace of Precipitation, MM = Missing Value Source: NWS Daily Summary

Daily Weather History Graph

Daily Weather History Graph

Search for Another Location

Airport or City:

Trip Planner

Search our weather history database for the weather conditions in past years. The results will help you decide how hot, cold, wet, or windy it might be!

Date:

Astronomy

Aug. 13, 2012 Rise Set
Actual Time 5:57 AM PDT 7:28 PM PDT
Civil Twilight 5:30 AM PDT 7:54 PM PDT
Nautical Twilight 4:58 AM PDT 8:26 PM PDT
Astronomical Twilight 4:24 AM PDT 9:00 PM PDT
Moon 2:09 AM PDT (8/13) 4:38 PM PDT (8/13)
Length of Visible Light 14h 23m
Length of Day
13h 30m
Waning Crescent, 15% of the Moon is Illuminated
Aug 13
Waning Crescent
Aug 17
New
Aug 24
First Quarter
Aug 31
Full
Sep 8
Last Quarter

Hourly Weather History & Observations

Time (PDT) Temp. Heat Index Dew Point Humidity Pressure Visibility Wind Dir Wind Speed Gust Speed Precip Events Conditions
12:56 AM 99.0 °F 98.1 °F 57.0 °F 25% 29.62 in 10.0 mi SW 4.6 mph - N/A   Clear
1:56 AM 95.0 °F 95.2 °F 61.0 °F 32% 29.62 in 10.0 mi North 4.6 mph - N/A   Clear
2:56 AM 93.9 °F 92.0 °F 55.0 °F 27% 29.63 in 10.0 mi WSW 3.5 mph - N/A   Clear
3:56 AM 91.9 °F 90.0 °F 55.0 °F 29% 29.63 in 10.0 mi WSW 8.1 mph - N/A   Clear
4:56 AM 90.0 °F 88.8 °F 57.9 °F 34% 29.64 in 10.0 mi WNW 3.5 mph - N/A   Clear
5:56 AM 90.0 °F 87.9 °F 55.0 °F 30% 29.67 in 10.0 mi SSW 4.6 mph - N/A   Clear
6:56 AM 93.0 °F 91.4 °F 55.9 °F 29% 29.68 in 10.0 mi WSW 4.6 mph - N/A   Clear
7:56 AM 99.0 °F 97.3 °F 55.0 °F 23% 29.69 in 10.0 mi Calm Calm - N/A   Clear
8:56 AM 102.0 °F 100.6 °F 55.0 °F 21% 29.69 in 10.0 mi NNE 8.1 mph - N/A   Clear
9:56 AM 104.0 °F 102.9 °F 55.0 °F 20% 29.69 in 10.0 mi NNE 8.1 mph - N/A   Clear
10:56 AM 108.0 °F 105.9 °F 53.1 °F 16% 29.68 in 10.0 mi NNE 4.6 mph - N/A   Clear
11:56 AM 109.0 °F - 51.1 °F 15% 29.66 in 10.0 mi Calm Calm - N/A   Clear
12:56 PM 111.9 °F - 48.9 °F 12% 29.63 in 10.0 mi Calm Calm - N/A   Clear
1:56 PM 114.1 °F - 51.1 °F 13% 29.60 in 10.0 mi Variable 3.5 mph - N/A   Clear
3:21 PM 116.6 °F - 46.4 °F 10% 29.69 in 10.0 mi West 5.8 mph 16.1 mph N/A Thunderstorm Clear
3:44 PM 116.6 °F - 48.2 °F 11% 29.68 in 10.0 mi West 16.1 mph 26.5 mph N/A   Partly Cloudy
3:56 PM 115.0 °F - 48.9 °F 11% 29.56 in 10.0 mi West 11.5 mph - 0.00 in Rain Light Rain
4:56 PM 115.0 °F - 46.0 °F 10% 29.55 in 10.0 mi West 11.5 mph - 0.00 in   Clear
5:56 PM 114.1 °F - 46.9 °F 11% 29.54 in 10.0 mi WSW 9.2 mph - N/A   Clear
6:56 PM 109.0 °F - 51.1 °F 15% 29.56 in 10.0 mi West 24.2 mph 35.7 mph N/A Thunderstorm Partly Cloudy
7:28 PM 102.2 °F 100.4 °F 53.6 °F 20% 29.69 in 10.0 mi WNW 23.0 mph 32.2 mph N/A   Clear
8:13 PM 105.8 °F - 51.8 °F 17% 29.71 in 10.0 mi WNW 10.4 mph - N/A   Clear
8:56 PM 104.0 °F - 50.0 °F 16% 29.61 in 10.0 mi WNW 4.6 mph - N/A   Partly Cloudy
9:56 PM 102.0 °F - 51.1 °F 18% 29.61 in 10.0 mi West 5.8 mph - N/A   Clear
10:56 PM 99.0 °F 96.5 °F 53.1 °F 21% 29.61 in 10.0 mi WSW 5.8 mph - N/A   Clear
11:56 PM 98.1 °F 96.4 °F 55.0 °F 24% 29.61 in 10.0 mi West 4.6 mph - N/A   Clear